Startpagina
METAR-TAF:

METAR-TAF

Vliegvelden :

Indore, India

breedte: 22-43N, lengte: 075-48E, hoogte: 561 m

Actueel weer

Dit bericht is 1 uur en het 32 minuten geleden gemaakt, om 03:00 UTC
Wind 2 kt uit het oosten
Temperatuur 16°C
Vochtigheid 63%
Druk 1016 hPa
Zicht: 2000 m
Heiigheid

METAR: VAID 100300Z 09002KT 2000 HZ NSC 16/09 Q1016 NOSIG

Tijdstip: 10:02 (04:32 UTC)


TAF: ontbreekt

Waarnemingen en weersverwachtingen van meer dan 4000 vliegvelden (METAR en TAF).

De beschikbare stations zijn de gele en rode punten op de kaart.

Ga met uw muis naar het station om de naam te zien.

Klik dan om waarnemingen en weersverwachtingen te zien.

kaart wijzigen: klik op de groene knoppen met een zwart kruis om in te zoomen, op de groene knop met een streepje om uit te zoomen of op de groene pijlen voor aangrenzende kaarten.


METAR-TAF: